OKEAN-O

Last updated on Sat Aug 15 2026 00:02:08 GMT+0000 (Coordinated Universal Time)

1 25860U 99039A 26226.60665226 .00000239 00000+0 38046-4 0 9990 2 25860 97.9271 284.7211 0001532 112.7372 247.4002 14.80524872457755
UTC large
Height (km)
Speed (km/s)
/
Latitude / Longitude
Inclination (degrees)
Orbital Period (minutes)
Azimuth
Elevation
Range (km)
Doppler Factor

Next 0 passes for location: London (51.5072 / 0.1276)

No passes found over London.
OKEAN-O